Stations météo

réclame
Mon MeteoGroup
Barth, Allemagne (10180): Température de l'air & dewpoint: 02.07.2020 16:00:00 - 08.07.2020 16:00:00 (CEST)Barth, Allemagne (10180): Température de l'air 5cm & Température de l'air -5cm: 02.07.2020 16:00:00 - 08.07.2020 16:00:00 (CEST)Barth, Allemagne (10180): Température de l'air -20cm & Température de l'air -100cm: 02.07.2020 16:00:00 - 08.07.2020 16:00:00 (CEST)Barth, Allemagne (10180): Vitesse du vent & gusts: 02.07.2020 16:00:00 - 08.07.2020 16:00:00 (CEST)Barth, Allemagne (10180): Direction du vent: 02.07.2020 16:00:00 - 08.07.2020 16:00:00 (CEST)Barth, Allemagne (10180): reduced air pressure: 02.07.2020 16:00:00 - 08.07.2020 16:00:00 (CEST)Barth, Allemagne (10180): visibility: 02.07.2020 16:00:00 - 08.07.2020 16:00:00 (CEST)Barth, Allemagne (10180): Ensoleillement: 02.07.2020 16:00:00 - 08.07.2020 16:00:00 (CEST)Barth, Allemagne (10180): Quantités de précipitations: 02.07.2020 16:00:00 - 08.07.2020 16:00:00 (CEST)
Date & Time tt [°C] td [°C] tt 5cm [°C] tt -5cm [°C] tt -20cm [°C] tt -100cm [°C] ff [km/h] ff [knt] fx [km/h] fx [knt] dd ppp [hPa] vv [km] sd [min] rr [mm]
08.07.2020 16:00:00 17,1 7,4 19,8 20,4 16,8 15,4 29 15 44 24 W 1014,0 38 47 0,0
08.07.2020 15:00:00 16,3 8,5 18,7 19,8 16,4 15,4 27 15 44 24 W 1013,9 57 38 0,0
08.07.2020 14:00:00 16,6 9,0 19,9 19,5 16,0 15,4 31 17 47 25 W 1013,7 75 41 0,0
08.07.2020 13:00:00 13,8 9,5 15,0 17,2 15,7 15,4 20 11 37 20 WNW 1013,7 59 12 0,0
08.07.2020 12:00:00 14,1 11,2 16,6 16,6 15,5 15,4 13 7 22 12 WSW 1013,4 75 4 0,2
08.07.2020 11:00:00 12,3 10,5 13,2 15,2 15,5 15,4 10 5 25 14 WSW 1013,2 42 0 0,5
08.07.2020 10:00:00 11,5 9,8 11,3 15,5 15,4 15,4 20 11 34 19 WNW 1013,1 4,9 4 0,1
08.07.2020 09:00:00 11,4 9,4 11,0 15,3 15,2 15,4 17 9 31 17 WNW 1012,6 23 24 0,7
08.07.2020 08:00:00 12,7 11,4 13,5 14,2 15,2 15,4 14 7 23 13 SW 1012,4 55 5 0,0
08.07.2020 07:00:00 11,8 10,7 11,7 13,2 15,3 15,5 13 7 22 12 SW 1012,3 44 0 0,0
08.07.2020 06:00:00 11,2 10,4 11,1 12,9 15,4 15,5 11 6 18 10 SW 1012,5 41 0 0,3
08.07.2020 05:00:00 10,9 10,2 10,5 12,8 15,7 15,5 11 6 17 9 SW 1012,3 33 0 0,2
08.07.2020 04:00:00 10,7 9,9 10,2 13,0 15,9 15,5 6 4 28 15 SW 1012,7 55 0 2,8
08.07.2020 03:00:00 10,9 10,0 10,4 13,2 16,2 15,5 13 7 23 13 WSW 1013,0 27 0 0,1
08.07.2020 02:00:00 11,4 10,3 10,9 13,7 16,5 15,5 14 8 23 13 W 1013,3 19 0 0,2
08.07.2020 01:00:00 11,9 9,4 11,0 14,1 16,8 15,5 11 6 25 13 W 1013,2 69 0 0,0
08.07.2020 00:00:00 12,1 11,1 11,6 14,6 17,1 15,5 13 7 22 12 WSW 1013,1 27 0 0,0
07.07.2020 23:00:00 12,0 11,1 11,6 14,8 17,4 15,5 14 7 25 13 SW 1013,2 37 0 0,2
07.07.2020 22:00:00 12,1 10,8 11,5 15,4 17,8 15,5 20 11 29 16 SW 1013,3 51 0 0,1
07.07.2020 21:00:00 12,6 11,2 12,0 16,3 18,2 15,5 16 9 24 13 SW 1013,4 48 0 0,0
07.07.2020 20:00:00 12,6 11,7 12,4 17,1 18,6 15,5 15 8 40 21 SW 1013,9 45 0 0,8
07.07.2020 19:00:00 13,2 12,2 13,0 18,5 18,9 15,5 21 11 56 31 W 1014,7 12 0 0,7
07.07.2020 18:00:00 15,9 9,9 14,1 20,6 18,9 15,5 16 9 32 17 SW 1014,2 27 0 0,1
07.07.2020 17:00:00 18,0 8,6 19,5 22,8 18,6 15,5 18 10 33 18 SW 1014,5 45 20 0,0
07.07.2020 16:00:00 18,5 8,0 20,1 24,1 18,0 15,5 21 11 35 19 W 1014,8 61 48 0,0
07.07.2020 15:00:00 17,8 7,2 20,7 23,6 17,4 15,6 21 11 38 20 W 1015,3 75 54 0,0
07.07.2020 14:00:00 17,9 6,3 22,9 22,5 16,7 15,6 27 14 46 25 W 1016,0 59 58 0,0
07.07.2020 13:00:00 18,0 9,8 23,7 20,3 16,2 15,6 23 12 37 20 W 1016,2 66 37 0,0
07.07.2020 12:00:00 16,3 9,4 20,1 18,4 15,9 15,6 24 13 41 22 W 1016,5 43 29 0,0
07.07.2020 11:00:00 15,1 9,5 16,6 17,5 15,5 15,6 24 13 45 24 W 1016,5 40 28 0,0
07.07.2020 10:00:00 15,1 9,0 16,2 17,3 15,2 15,6 24 13 36 19 W 1016,3 42 36 0,0
07.07.2020 09:00:00 14,5 8,0 15,6 15,2 15,0 15,6 18 10 41 22 WNW 1016,3 49 18 0,0
07.07.2020 08:00:00 14,6 7,4 16,6 14,0 14,9 15,6 21 11 37 20 WNW 1016,1 41 25 0,0
07.07.2020 07:00:00 13,3 7,2 13,2 12,5 15,1 15,6 20 11 36 19 WNW 1015,7 42 0 0,0
07.07.2020 06:00:00 12,7 6,4 12,0 12,0 15,3 15,6 17 9 53 28 WNW 1015,0 55 1 0,0
07.07.2020 05:00:00 12,7 6,2 11,6 12,0 15,6 15,6 24 13 44 24 WNW 1014,6 48 0 0,0
07.07.2020 04:00:00 12,6 7,7 11,4 12,3 15,8 15,6 23 13 48 26 WNW 1014,1 40 0 0,0
07.07.2020 03:00:00 13,2 7,6 12,1 12,9 16,1 15,6 26 14 49 26 WNW 1013,7 44 0 0,0
07.07.2020 02:00:00 13,7 7,8 12,8 13,1 16,4 15,6 29 16 47 25 W 1013,4 46 0 0,0
07.07.2020 01:00:00 13,9 7,8 13,2 13,3 16,8 15,6 27 15 50 27 W 1013,0 47 0 0,0
07.07.2020 00:00:00 13,9 7,3 12,7 13,7 17,2 15,6 30 16 56 30 W 1012,5 40 0 0,0
06.07.2020 23:00:00 14,1 8,5 12,7 14,5 17,6 15,6 32 18 50 27 W 1011,8 32 0 0,0
06.07.2020 22:00:00 14,6 7,7 13,2 15,2 17,9 15,6 31 17 63 34 W 1011,2 36 0 0,0
06.07.2020 21:00:00 15,0 10,5 14,6 16,6 18,2 15,6 30 16 52 28 W 1010,4 39 23 0,0
06.07.2020 20:00:00 16,1 10,7 16,7 17,4 18,5 15,6 31 17 56 30 W 1010,0 45 31 0,0
06.07.2020 19:00:00 16,5 9,9 17,4 18,6 18,6 15,6 35 19 63 34 W 1009,2 53 24 0,0
06.07.2020 18:00:00 16,7 9,7 16,7 20,0 18,6 15,6 38 21 61 33 WSW 1008,5 50 50 0,1
06.07.2020 17:00:00 15,0 11,4 14,0 20,7 18,4 15,7 35 19 61 33 W 1008,3 42 37 0,2
06.07.2020 16:00:00 17,0 9,3 17,6 22,0 18,1 15,7 39 21 62 34 W 1007,7 50 50 0,0
06.07.2020 15:00:00 17,9 10,4 21,0 21,6 17,7 15,7 37 20 60 32 WSW 1007,1 51 56 0,0
06.07.2020 14:00:00 18,1 10,1 20,9 20,7 17,3 15,7 36 20 63 34 WSW 1006,5 31 48 0,0
06.07.2020 13:00:00 17,5 9,9 20,8 19,8 17,0 15,7 32 18 65 35 W 1006,0 55 37 0,0
06.07.2020 12:00:00 16,7 10,3 18,0 18,4 16,7 15,7 37 20 56 31 WSW 1005,5 53 29 0,0
06.07.2020 11:00:00 14,1 10,7 13,5 17,3 16,5 15,7 28 15 51 27 WSW 1005,5 28 14 0,1
06.07.2020 10:00:00 16,7 9,9 18,1 17,8 16,2 15,7 25 13 48 26 SW 1005,0 45 37 0,0
06.07.2020 09:00:00 16,1 10,3 17,9 16,5 16,1 15,7 25 14 43 23 SW 1005,1 71 50 0,0
06.07.2020 08:00:00 15,3 10,5 16,9 14,9 16,1 15,7 20 11 34 19 SW 1004,9 54 14 0,0
06.07.2020 07:00:00 14,3 9,9 14,0 14,0 16,2 15,7 20 11 34 18 SW 1004,7 49 0 0,0
06.07.2020 06:00:00 13,7 9,9 13,3 13,6 16,4 15,7 18 10 29 15 SSW 1004,7 62 12 0,0
06.07.2020 05:00:00 13,2 9,8 12,5 13,8 16,6 15,7 11 6 28 15 SW 1004,7 57 0 0,0
06.07.2020 04:00:00 13,9 9,9 13,3 13,9 16,9 15,7 18 10 29 16 SW 1004,8 51 0 0,0
06.07.2020 03:00:00 12,8 9,8 11,7 13,9 17,2 15,7 12 7 22 12 SW 1005,4 46 0 0,0
06.07.2020 02:00:00 13,7 10,0 12,6 14,1 17,6 15,7 13 7 22 12 WSW 1006,0 44 0 0,0
06.07.2020 01:00:00 14,4 10,0 12,9 14,7 18,0 15,7 14 8 36 19 SW 1006,0 47 0 0,0
06.07.2020 00:00:00 14,8 10,9 13,5 15,5 18,4 15,7 17 9 27 15 WSW 1006,1 45 0 0,0
05.07.2020 23:00:00 15,9 12,0 14,6 16,3 18,7 15,7 14 8 31 17 WSW 1006,1 42 0 0,0
05.07.2020 22:00:00 17,0 12,6 15,9 17,3 19,1 15,7 15 8 33 18 W 1006,1 38 2 0,0
05.07.2020 21:00:00 17,4 12,2 16,6 18,2 19,3 15,7 23 12 46 25 W 1005,8 47 33 0,0
05.07.2020 20:00:00 19,1 13,7 18,8 19,6 19,4 15,7 21 12 44 24 W 1005,4 54 16 0,0
05.07.2020 19:00:00 19,7 14,3 19,7 21,0 19,3 15,7 25 14 50 27 W 1005,5 55 41 0,0
05.07.2020 18:00:00 21,6 14,1 22,0 21,9 19,1 15,7 36 19 54 29 W 1005,1 64 50 0,0
05.07.2020 17:00:00 22,7 16,6 24,7 21,8 18,9 15,7 25 14 51 28 WSW 1004,9 48 26 0,0
05.07.2020 16:00:00 17,8 14,5 17,9 20,9 18,7 15,7 40 21 58 31 W 1005,4 41 7 0,0
05.07.2020 15:00:00 20,0 17,0 20,7 20,5 18,6 15,7 31 17 51 28 SW 1005,0 67 1 0,1
05.07.2020 14:00:00 18,8 17,2 18,4 19,7 18,5 15,7 28 15 47 26 SW 1005,1 17 0 0,4
05.07.2020 13:00:00 19,1 16,9 18,1 19,6 18,4 15,7 29 16 52 28 WSW 1005,0 4,6 0 0,0
05.07.2020 12:00:00 20,2 17,0 20,5 20,7 18,2 15,7 31 17 45 24 SSW 1004,6 55 0 0,0
05.07.2020 11:00:00 20,0 17,4 20,3 20,1 17,9 15,7 21 12 42 23 SW 1004,8 67 7 0,0
05.07.2020 10:00:00 18,9 17,6 19,4 19,0 17,7 15,7 23 12 37 20 SSW 1005,1 39 0 0,0
05.07.2020 09:00:00 18,6 17,5 18,6 18,3 17,6 15,7 20 11 31 17 SSW 1005,2 47 0 0,1
05.07.2020 08:00:00 17,8 17,3 17,7 17,8 17,6 15,7 18 10 30 16 SSW 1005,7 4,0 0 0,0
05.07.2020 07:00:00 17,7 17,0 17,5 17,5 17,6 15,7 18 10 31 17 SSW 1006,1 9 0 0,0
05.07.2020 06:00:00 17,4 16,6 17,0 17,1 17,6 15,7 17 9 31 17 SSW 1006,6 33 0 0,0
05.07.2020 05:00:00 17,1 16,4 16,7 17,0 17,7 15,7 16 9 24 13 SSW 1006,9 23 0 0,1
05.07.2020 04:00:00 16,8 16,2 16,5 16,9 17,7 15,7 16 9 27 14 SSW 1007,4 10 0 0,2
05.07.2020 03:00:00 16,8 16,2 16,3 16,9 17,8 15,7 16 8 27 14 SW 1008,1 11 0 0,4
05.07.2020 02:00:00 16,9 15,9 16,2 16,9 17,9 15,7 16 9 26 14 SW 1008,6 30 0 0,3
05.07.2020 01:00:00 16,9 15,6 16,0 16,9 18,1 15,7 16 9 33 18 SW 1008,9 19 0 0,1
05.07.2020 00:00:00 17,0 15,5 16,4 17,1 18,2 15,7 19 10 29 16 SW 1009,1 38 0 0,0
04.07.2020 23:00:00 17,0 15,6 16,4 17,3 18,3 15,7 19 11 31 17 SW 1009,4 38 0 0,0
04.07.2020 22:00:00 17,1 15,7 16,5 17,6 18,5 15,7 16 9 26 14 SW 1009,7 38 0 0,0
04.07.2020 21:00:00 16,9 16,0 16,4 17,9 18,6 15,7 18 10 31 17 SSW 1009,7 21 0 0,1
04.07.2020 20:00:00 16,8 15,9 16,4 18,1 18,7 15,7 16 9 27 15 SSW 1009,8 22 0 0,3
04.07.2020 19:00:00 16,5 15,5 16,1 18,3 18,9 15,7 16 9 29 16 SSW 1010,1 27 0 2,2
04.07.2020 18:00:00 17,0 15,2 16,2 18,8 19,0 15,7 16 9 34 18 SW 1010,4 6 0 0,2
04.07.2020 17:00:00 17,2 14,6 16,4 19,3 19,0 15,7 23 12 37 20 SW 1010,4 41 0 0,2
04.07.2020 16:00:00 17,8 15,2 17,2 20,3 18,9 15,7 15 8 24 13 SSW 1010,4 41 0 0,1
04.07.2020 15:00:00 17,0 15,9 17,8 20,2 18,8 15,7 15 8 34 19 SW 1010,8 6 0 0,3
04.07.2020 14:00:00 17,6 13,8 18,7 19,3 18,7 15,7 22 12 42 23 SW 1011,1 35 0 0,0
04.07.2020 13:00:00 17,7 13,7 19,7 19,9 18,5 15,7 26 14 41 22 SSW 1011,4 65 0 0,0
04.07.2020 12:00:00 16,2 13,4 16,7 19,3 18,4 15,7 21 11 41 22 SW 1011,7 10 0 0,0
04.07.2020 11:00:00 16,8 13,2 17,8 19,1 18,3 15,7 23 12 41 22 SW 1011,6 37 2 0,0
04.07.2020 10:00:00 16,6 12,8 17,4 18,5 18,2 15,7 25 13 39 21 SW 1011,6 25 0 0,0
04.07.2020 09:00:00 15,8 12,7 15,8 17,4 18,3 15,7 21 11 37 20 SW 1011,6 31 0 0,0
04.07.2020 08:00:00 15,9 13,8 15,3 17,0 18,4 15,7 17 9 32 18 SW 1011,4 29 0 0,1
04.07.2020 07:00:00 16,3 13,5 16,2 17,0 18,5 15,7 16 9 25 13 SW 1011,4 34 0 0,0
04.07.2020 06:00:00 15,9 14,0 15,3 16,8 18,7 15,7 16 8 22 12 SSW 1011,5 24 0 0,1
04.07.2020 05:00:00 15,7 13,9 15,2 16,9 18,9 15,7 14 7 21 11 SSW 1011,6 21 0 0,0
04.07.2020 04:00:00 15,6 14,1 15,0 17,1 19,2 15,7 11 6 16 9 SSW 1012,0 18 0 0,0
04.07.2020 03:00:00 15,3 14,5 14,9 17,4 19,4 15,7 6 3 11 6 S 1012,7 12 0 0,0
04.07.2020 02:00:00 15,2 14,7 15,0 17,6 19,8 15,7 9 5 28 15 SW 1013,5 7 0 0,1
04.07.2020 01:00:00 15,1 14,5 14,9 17,9 20,1 15,6 17 9 28 15 W 1014,0 4,2 0 0,6
04.07.2020 00:00:00 15,5 14,5 15,2 18,6 20,4 15,6 7 4 13 7 S 1013,6 21 0 0,0
03.07.2020 23:00:00 15,4 14,4 15,0 19,0 20,8 15,6 9 5 16 9 SW 1014,1 20 0 0,1
03.07.2020 22:00:00 15,7 14,7 15,5 19,7 21,2 15,6 7 4 11 6 S 1014,1 26 0 0,0
03.07.2020 21:00:00 15,7 14,5 15,6 20,6 21,6 15,6 8 4 20 11 S 1014,1 30 0 0,0
03.07.2020 20:00:00 16,2 14,2 15,4 21,6 22,0 15,6 17 9 47 25 W 1014,2 29 0 0,8
03.07.2020 19:00:00 19,0 12,7 18,9 24,1 22,0 15,6 9 5 20 11 WSW 1013,8 69 0 0,0
03.07.2020 18:00:00 19,7 12,0 20,6 25,8 21,9 15,6 16 9 23 13 WSW 1013,8 60 8 0,0
03.07.2020 17:00:00 19,4 11,9 21,2 26,4 21,6 15,6 16 9 29 16 WSW 1013,9 59 15 0,0
03.07.2020 16:00:00 18,5 11,8 20,1 27,0 21,2 15,6 14 7 26 14 SW 1014,0 59 23 0,0
03.07.2020 15:00:00 18,8 11,0 22,5 27,6 20,5 15,6 13 7 25 13 W 1014,5 72 41 0,0
03.07.2020 14:00:00 18,0 10,0 22,0 27,1 19,9 15,6 14 8 28 15 W 1014,7 75 32 0,0
03.07.2020 13:00:00 18,3 10,7 24,3 23,6 19,5 15,6 16 9 25 13 W 1014,6 60 13 0,0
03.07.2020 12:00:00 17,1 11,6 20,2 22,1 19,2 15,6 14 8 22 12 W 1014,4 55 6 0,0
03.07.2020 11:00:00 16,7 10,7 19,8 20,8 19,0 15,6 11 6 19 11 WNW 1014,0 49 0 0,0
03.07.2020 10:00:00 16,5 11,5 18,6 20,7 18,8 15,6 8 5 17 9 WNW 1013,7 75 17 0,0
03.07.2020 09:00:00 15,7 10,7 17,5 19,0 18,8 15,6 10 5 19 11 NW 1013,3 70 11 0,0
03.07.2020 08:00:00 16,1 11,5 19,3 17,7 18,9 15,6 13 7 23 12 NNW 1012,8 75 8 0,0
03.07.2020 07:00:00 15,7 11,3 16,1 17,5 19,1 15,6 11 6 23 13 NNW 1012,2 65 5 0,0
03.07.2020 06:00:00 15,2 13,8 14,7 17,4 19,4 15,6 6 3 10 6 NW 1011,7 42 0 0,0
03.07.2020 05:00:00 14,8 14,4 14,1 17,5 19,6 15,6 3 1 11 6 SW 1011,0 7 0 0,0
03.07.2020 04:00:00 15,2 14,7 14,8 18,0 19,9 15,6 5 3 14 8 SW 1010,6 9 0 0,0
03.07.2020 03:00:00 15,6 14,9 15,3 18,5 20,3 15,6 6 4 12 6 WSW 1010,7 11 0 0,0
03.07.2020 02:00:00 15,9 15,2 15,6 18,9 20,6 15,6 8 4 12 6 SW 1010,6 11 0 0,0
03.07.2020 01:00:00 15,8 15,0 15,6 19,4 20,9 15,6 9 5 12 6 S 1010,5 18 0 0,1
03.07.2020 00:00:00 16,1 14,4 15,9 20,1 21,3 15,6 3 2 8 4 SW 1010,4 37 0 0,0
02.07.2020 23:00:00 16,1 14,4 16,1 20,6 21,7 15,6 5 3 9 5 S 1010,3 40 0 0,0
02.07.2020 22:00:00 16,3 14,4 14,7 21,6 22,1 15,6 2 1 8 4 SSW 1009,8 43 0 0,0
02.07.2020 21:00:00 17,8 14,1 17,5 23,0 22,5 15,6 4 2 8 4 S 1009,5 50 0 0,0
02.07.2020 20:00:00 18,5 13,8 19,1 24,2 22,7 15,6 6 3 13 7 WNW 1009,6 56 1 0,0
02.07.2020 19:00:00 18,7 12,9 19,1 25,9 22,7 15,6 10 6 22 12 WNW 1009,3 57 10 0,0
02.07.2020 18:00:00 20,3 12,3 23,6 28,2 22,4 15,6 13 7 24 13 WNW 1009,2 54 60 0,0
02.07.2020 17:00:00 20,4 12,8 24,3 28,4 22,0 15,6 13 7 28 15 WNW 1009,1 50 42 0,0
02.07.2020 16:00:00 20,5 12,9 25,2 29,5 21,3 15,6 17 9 30 16 WNW 1009,0 57 59 0,0

tt = Température de l'air
td = dewpoint
tt 5cm = Température de l'air 5cm
tt -5cm = Température de l'air -5cm
tt -20cm = Température de l'air -20cm
tt -100cm = Température de l'air -100cm
ff = Vitesse du vent
fx = gusts
dd = Direction du vent
ppp = reduced air pressure
vv = visibility
sd = Ensoleillement
rr = Quantités de précipitations

stations d'obs. à proximité